sat.trackr.live / text

‹ back to catalog

STARLINK-34005

NORAD 63935 · 2025-098K

PAYLOAD ACTIVE UNKNOWN

§ Identity

Operator
Country
US
Launch date
2025-05-13
Launch site
AFWTR
Launch vehicle
Mass (kg)
RCS (m²)

Purposes: comms

External: N2YO · Heavens-Above · Gunter

§ Orbital elements

Epoch: 2026-05-25T02:23:45.021696Z

Period
96.11 min
Inclination
70.0007°
Eccentricity
0.0003142
Mean motion
14.98336188 rev/d
Perigee alt
569.9 km
Apogee alt
574.2 km
Semi-major
6,950.2 km
B*
2.6647e-4
RAAN
81.9675°
Arg perigee
267.9356°
Mean anomaly
92.1443°
Rev number
5,800

§ Raw data

STARLINK-340051 63935U 25098K   26145.09982664  .00003088  00000+0  26647-3 0  99982 63935  70.0007  81.9675 0003142 267.9356  92.1443 14.98336188 58003

JSON: /api/v1/satellites/63935 · /tle

For live sub-satellite position, see the globe view (requires WebGL).

§ Visibility from observer

Set your observer location to see the next 7 days of passes ≥ 10°. The values pass through the URL so the page stays shareable.

No JS? Fill the form by hand. The geolocation button needs JavaScript.